Wind_Speed
15 15 13 10 8 10 11 13 16 17 17 16 16 16 16 16 15 12 10 12 13 13 13 16 19 22 28 35 31 25 18 16 12 11 11 20 25 23 21 22 24 20 21
17 16 18 13 12 13 11 13 17 18 18 16 18 20 20 20 19 19 16 15 17 15 16 19 21 24 30 41 19 19 17 14 12 8 7 7 12 17 20 21 22 22 21
14 13 15 13 12 13 12 11 14 17 17 17 18 19 20 20 21 25 23 20 21 21 20 23 22 25 27 32 24 17 18 16 12 9 7 8 13 18 22 24 25 25 25
16 13 13 14 15 15 15 16 16 17 19 19 20 20 19 19 20 22 26 26 24 22 24 26 25 25 28 30 35 23 22 23 20 15 14 14 15 17 19 22 25 26 26
21 20 18 21 18 18 20 23 23 23 21 21 23 23 24 23 24 27 27 28 28 26 27 28 29 29 31 31 33 34 33 27 27 23 19 17 17 15 17 19 23 25 26
24 25 27 24 29 25 28 25 25 24 27 28 26 28 29 29 29 31 31 32 32 32 30 31 32 33 34 37 41 40 22 25 28 29 28 23 23 21 19 20 23 25 27
32 27 28 25 40 36 26 39 30 30 27 27 32 33 33 32 33 34 34 35 34 33 32 31 35 33 37 40 36 24 22 27 33 28 33 31 28 26 23 22 23 25 27
29 30 26 24 27 26 23 24 32 32 29 38 42 37 30 34 33 33 34 33 31 30 34 33 35 38 40 41 42 41 38 38 34 28 34 32 29 27 27 25 25 27 27
28 29 28 28 28 28 29 32 33 37 36 29 29 25 29 34 33 31 33 32 32 35 35 35 34 37 40 40 41 36 30 34 30 27 33 35 32 29 28 25 26 28 29
29 30 29 29 29 32 33 31 34 36 35 32 29 28 30 28 30 32 32 34 34 38 36 31 33 37 40 39 43 34 17 24 28 32 33 32 33 31 28 26 26 28 30
26 28 30 32 34 35 35 35 36 37 35 33 33 34 32 31 34 33 32 38 39 36 36 38 38 37 38 39 36 24 20 25 31 32 30 29 31 29 26 26 27 30 32
19 22 25 27 31 34 37 38 38 35 38 35 36 35 34 35 39 38 37 41 41 39 37 38 42 43 43 39 33 25 28 30 30 27 28 31 31 28 26 26 27 29 30
22 23 25 27 28 29 31 33 34 35 34 38 39 35 35 35 39 37 36 38 36 38 35 37 40 40 39 34 27 29 32 28 26 28 30 31 29 30 29 29 27 28 29
26 23 22 22 23 26 29 31 33 35 33 32 34 37 35 35 33 30 31 33 34 31 29 30 34 32 28 22 29 30 28 28 29 29 30 28 31 29 29 30 30 30 28
18 18 19 18 20 24 27 29 29 30 28 28 29 30 31 29 28 29 31 32 31 27 26 29 21 20 25 27 26 27 28 29 30 29 28 28 28 27 29 30 30 27 27
16 13 18 19 22 27 29 25 24 25 23 25 26 25 27 26 26 27 26 28 28 28 30 28 27 27 25 23 24 25 26 27 28 25 27 28 28 26 28 31 29 23 31
15 17 18 18 23 26 14 19 20 21 20 18 24 25 26 25 26 27 31 29 18 20 21 24 23 21 21 21 22 24 25 25 25 28 30 27 26 23 35 30 21 26 30
16 16 15 16 18 21 13 7 7 10 10 14 17 20 20 24 26 26 30 23 18 16 16 17 17 18 19 21 21 22 22 22 23 24 25 24 21 22 26 22 25 27 28
15 15 16 18 18 17 15 16 12 13 7 6 8 14 16 13 6 8 8 7 10 12 13 16 17 18 19 20 21 23 22 21 23 23 23 20 19 22 29 28 26 24 25
15 15 14 15 18 17 14 17 12 8 9 6 5 1 6 6 7 9 8 9 13 17 20 20 19 19 20 21 22 21 21 21 20 19 18 19 19 20 21 23 23 22 24
15 15 14 15 15 16 16 16 14 13 9 10 7 8 5 3 2 4 8 11 12 14 17 18 19 19 20 22 23 21 19 17 16 19 20 18 19 18 19 22 22 24 24
14 15 15 15 15 12 17 14 13 14 10 7 6 4 2 3 4 7 10 12 15 17 18 18 18 19 20 21 19 18 16 16 21 22 18 20 21 21 20 19 20 21 14
13 13 13 14 15 13 14 16 16 16 10 6 10 10 8 8 9 11 14 17 19 20 20 20 19 20 20 20 19 18 19 19 19 18 14 14 15 17 18 19 18 12 8
12 11 11 12 14 15 15 15 14 16 12 8 12 12 11 13 14 15 17 19 20 19 19 18 18 20 21 21 21 20 18 18 18 15 12 14 14 16 17 14 8 7 9
16 13 10 9 12 15 15 16 15 14 14 15 17 19 17 16 16 17 19 20 17 16 18 18 17 18 20 19 19 18 15 15 15 17 17 17 16 15 11 7 7 8 8
21 18 16 14 15 15 14 15 15 16 17 18 19 20 22 21 19 19 22 23 21 19 19 20 20 20 20 21 18 16 14 14 14 15 17 16 15 10 8 8 7 6 9
Wind_Direction
239 243 233 225 242 260 260 246 230 232 238 248 250 250 251 259 273 280 289 291 295 304 297 302 309 312 313 315 302 312 315 329 344 358 285 258 258 269 263 258 271 283 285
247 243 248 237 235 244 260 258 244 236 235 240 245 251 258 260 270 276 282 292 298 305 304 305 308 313 304 326 309 319 316 323 334 351 344 306 268 268 273 277 284 287 290
267 257 253 249 252 253 252 246 248 252 247 244 240 242 250 259 267 274 276 277 289 302 305 305 310 316 312 332 342 319 327 318 307 305 295 284 286 289 291 293 294 293 295
270 269 269 253 236 237 242 241 241 242 243 238 238 240 243 247 252 261 267 268 267 274 284 291 299 303 306 316 325 322 321 312 298 284 280 276 275 282 288 291 294 295 298
274 276 266 273 268 256 244 240 234 235 236 238 237 238 242 247 256 263 265 269 273 275 277 283 285 292 296 301 316 314 303 302 302 298 290 286 284 282 290 299 299 302 297
278 288 277 261 272 264 271 260 249 243 240 237 234 238 241 248 253 259 265 269 274 276 276 280 284 285 286 296 301 311 285 283 291 298 297 294 291 295 298 301 303 302 300
273 279 287 266 285 260 266 267 252 252 259 253 244 236 243 245 251 254 257 259 259 267 271 272 279 287 292 295 308 309 301 299 288 290 293 291 291 295 295 301 303 299 293
269 273 277 287 286 260 291 260 259 265 265 247 270 239 237 245 244 250 257 259 260 259 262 269 281 282 285 301 299 301 290 286 285 289 290 285 284 287 294 298 299 295 294
262 264 265 264 267 269 264 265 263 264 267 271 279 283 272 254 243 249 253 254 254 256 262 268 277 282 290 295 301 299 279 284 278 286 292 289 284 285 290 294 298 303 306
263 264 265 264 263 264 264 263 261 261 262 264 269 269 271 253 253 256 263 270 266 266 270 273 279 284 288 291 296 290 274 274 292 295 297 288 284 288 294 298 300 306 306
271 271 274 275 274 270 267 265 262 263 266 269 268 265 268 259 255 264 264 271 275 277 284 278 277 283 286 283 290 292 280 291 288 296 296 285 284 287 296 302 306 308 306
288 281 274 270 269 271 272 271 270 264 266 268 266 264 262 263 266 272 272 273 277 279 277 273 269 273 278 283 282 272 276 285 289 294 291 287 286 290 298 305 308 309 308
307 298 291 283 277 273 274 279 282 282 276 268 269 267 266 264 263 264 267 271 275 278 277 273 269 268 263 265 270 282 281 285 293 293 289 289 289 298 304 310 307 302 305
308 309 301 299 297 291 286 282 278 278 277 271 265 260 262 264 268 267 271 274 279 277 277 271 268 265 265 257 269 276 283 292 294 292 292 291 293 299 303 302 297 298 302
327 320 321 314 302 289 284 285 286 285 278 272 268 258 255 266 275 277 279 279 278 273 268 267 274 265 260 268 273 285 293 293 291 289 292 295 294 300 300 299 290 298 296
353 354 346 337 317 301 288 282 288 285 281 280 278 266 262 265 262 269 274 271 261 257 260 261 259 264 274 285 291 290 284 285 286 282 292 295 294 294 292 287 275 280 309
351 338 346 357 354 349 332 277 294 297 282 286 262 261 268 263 267 266 273 260 254 254 262 269 279 286 289 290 288 288 293 295 293 290 287 288 295 274 286 261 272 299 306
350 352 347 355 352 3 17 355 316 356 321 280 275 272 258 263 269 267 262 254 253 265 275 281 285 288 292 295 300 304 301 289 289 288 288 292 287 274 275 308 310 302 304
353 358 356 358 359 1 1 357 1 360 21 320 286 256 255 252 272 286 252 262 269 276 284 289 297 306 307 303 299 296 299 298 293 295 293 290 288 278 290 299 294 294 311
348 360 358 359 2 359 5 9 6 1 357 6 16 129 224 263 253 258 266 273 281 290 298 300 299 297 296 298 299 299 298 296 295 296 293 292 292 285 289 286 293 304 312
350 353 353 354 359 357 2 356 4 19 41 45 29 42 48 49 22 315 292 300 307 302 299 300 300 302 306 310 307 299 296 299 301 300 299 292 294 303 302 298 296 300 302
353 350 343 345 348 356 12 13 7 6 353 8 39 50 25 294 285 289 298 302 297 292 293 298 303 312 314 316 312 304 297 289 295 311 293 284 291 296 295 302 297 295 286
341 350 340 334 336 348 346 353 354 357 351 344 346 343 324 304 292 293 297 296 296 304 309 309 315 319 316 321 318 301 293 298 308 310 301 285 286 293 299 299 294 278 254
325 334 336 333 330 331 334 337 338 340 343 335 341 341 331 314 308 303 307 309 303 300 298 303 315 320 319 317 315 313 296 291 293 296 306 304 305 305 301 297 275 258 256
317 315 319 328 335 334 328 323 324 328 326 317 315 316 318 314 314 308 302 302 299 290 289 293 304 312 318 315 311 311 301 293 292 292 295 305 308 301 294 272 260 258 272
312 310 306 302 305 310 316 321 316 310 309 310 312 310 308 310 313 313 306 301 298 295 293 296 300 306 312 320 320 316 305 309 301 290 294 302 298 288 259 253 260 278 291
Height
5931 5934 5934 5932 5934 5935 5934 5933 5933 5935 5936 5938 5940 5941 5942 5941 5941 5941 5941 5940 5940 5942 5942 5941 5939 5937 5934 5930 5925 5925 5920 5914 5908 5905 5904 5906 5907 5907 5906 5904 5901 5899 5896
5929 5929 5931 5929 5929 5930 5930 5930 5929 5931 5932 5933 5934 5935 5937 5939 5939 5938 5938 5938 5937 5939 5938 5937 5936 5934 5930 5926 5922 5922 5920 5915 5910 5905 5903 5904 5904 5904 5903 5901 5899 5896 5893
5928 5927 5929 5927 5926 5926 5925 5925 5926 5926 5928 5928 5928 5928 5929 5931 5933 5932 5933 5933 5932 5934 5933 5931 5930 5928 5925 5921 5919 5919 5917 5915 5911 5906 5903 5902 5902 5901 5900 5898 5896 5893 5888
5925 5925 5924 5922 5919 5920 5920 5919 5920 5921 5923 5922 5922 5924 5925 5924 5924 5924 5925 5924 5924 5924 5923 5923 5922 5921 5918 5918 5915 5916 5913 5912 5911 5906 5901 5900 5898 5896 5895 5893 5890 5887 5885
5919 5919 5918 5918 5918 5917 5916 5916 5913 5913 5916 5917 5917 5917 5918 5919 5919 5919 5917 5918 5917 5917 5918 5916 5916 5915 5912 5911 5910 5910 5908 5907 5905 5902 5898 5895 5893 5890 5889 5887 5885 5882 5879
5914 5913 5913 5910 5914 5912 5914 5914 5909 5907 5906 5906 5909 5909 5908 5911 5912 5910 5911 5911 5910 5910 5910 5908 5907 5907 5906 5904 5902 5900 5897 5897 5897 5895 5893 5890 5887 5884 5882 5880 5878 5875 5872
5906 5905 5905 5903 5903 5900 5902 5909 5906 5899 5898 5897 5902 5899 5901 5900 5902 5902 5902 5903 5901 5902 5901 5900 5899 5899 5897 5894 5894 5893 5891 5891 5890 5887 5886 5883 5881 5879 5875 5873 5873 5870 5868
5898 5898 5898 5896 5894 5894 5895 5898 5896 5892 5894 5894 5888 5885 5890 5894 5892 5894 5896 5897 5899 5896 5894 5893 5891 5891 5889 5887 5886 5885 5883 5881 5880 5878 5878 5875 5873 5870 5868 5866 5865 5863 5861
5890 5890 5890 5890 5890 5888 5889 5889 5885 5884 5884 5883 5881 5878 5883 5883 5883 5885 5886 5888 5888 5887 5886 5886 5886 5883 5881 5878 5876 5873 5872 5872 5870 5869 5870 5868 5866 5863 5860 5859 5858 5857 5855
5882 5881 5879 5879 5878 5878 5877 5877 5876 5875 5873 5872 5870 5870 5873 5875 5877 5879 5880 5880 5880 5878 5880 5879 5877 5875 5873 5871 5867 5864 5863 5864 5864 5865 5864 5862 5860 5856 5854 5853 5851 5850 5847
5876 5873 5871 5870 5869 5868 5868 5868 5868 5866 5864 5864 5865 5866 5867 5867 5869 5869 5872 5873 5871 5869 5869 5868 5865 5865 5864 5863 5862 5860 5857 5858 5858 5858 5856 5855 5852 5849 5848 5846 5845 5842 5839
5867 5865 5864 5862 5861 5858 5858 5858 5858 5858 5856 5856 5857 5858 5858 5859 5860 5861 5862 5862 5861 5861 5859 5858 5857 5855 5855 5855 5854 5852 5852 5851 5850 5848 5848 5847 5845 5843 5841 5839 5838 5835 5832
5859 5855 5853 5853 5852 5851 5849 5846 5844 5843 5844 5845 5846 5848 5847 5850 5852 5853 5852 5852 5851 5851 5848 5846 5844 5845 5845 5845 5846 5846 5845 5843 5841 5841 5841 5839 5838 5837 5835 5833 5831 5828 5824
5850 5847 5845 5844 5843 5842 5841 5839 5836 5833 5833 5834 5835 5838 5839 5840 5843 5843 5841 5842 5841 5841 5840 5837 5834 5833 5834 5836 5837 5837 5836 5835 5834 5835 5834 5832 5830 5829 5826 5826 5824 5821 5816
5844 5843 5840 5836 5834 5831 5830 5828 5826 5825 5825 5824 5826 5827 5830 5831 5833 5834 5833 5834 5832 5831 5833 5832 5829 5830 5831 5830 5830 5829 5828 5828 5828 5827 5825 5825 5823 5821 5819 5817 5815 5813 5810
5844 5841 5838 5835 5832 5826 5821 5818 5816 5815 5815 5816 5817 5817 5819 5823 5824 5826 5825 5824 5823 5825 5826 5827 5827 5826 5825 5823 5822 5823 5822 5821 5820 5818 5818 5817 5816 5814 5812 5808 5807 5805 5803
5843 5841 5837 5832 5828 5820 5814 5815 5814 5812 5810 5809 5809 5811 5813 5814 5814 5816 5816 5816 5817 5818 5818 5820 5820 5819 5818 5817 5817 5817 5816 5815 5813 5812 5811 5810 5808 5806 5803 5800 5800 5799 5798
5843 5840 5836 5831 5827 5823 5816 5815 5813 5809 5806 5804 5804 5806 5808 5809 5809 5808 5808 5809 5811 5813 5814 5814 5814 5813 5812 5812 5811 5811 5809 5808 5807 5805 5803 5802 5801 5800 5797 5793 5793 5793 5792
5841 5838 5835 5831 5828 5824 5819 5815 5811 5807 5804 5802 5801 5802 5803 5804 5803 5802 5803 5806 5809 5810 5810 5810 5808 5807 5806 5806 5805 5804 5802 5801 5799 5797 5796 5795 5794 5794 5791 5789 5789 5788 5786
5840 5838 5835 5832 5828 5825 5820 5816 5812 5808 5806 5804 5802 5801 5801 5801 5801 5802 5803 5804 5806 5807 5806 5805 5804 5803 5802 5800 5798 5796 5795 5795 5794 5792 5790 5789 5788 5787 5786 5785 5783 5782 5781
5839 5837 5833 5830 5828 5824 5821 5817 5814 5811 5808 5805 5805 5804 5802 5802 5803 5804 5804 5805 5804 5803 5803 5802 5800 5798 5796 5794 5792 5791 5791 5789 5788 5787 5784 5783 5782 5781 5780 5779 5778 5776 5776
5838 5835 5832 5829 5827 5824 5821 5818 5815 5813 5811 5810 5808 5806 5805 5803 5802 5802 5802 5802 5802 5802 5801 5799 5797 5794 5792 5790 5787 5786 5785 5785 5784 5782 5778 5777 5777 5776 5775 5774 5773 5772 5772
5837 5835 5832 5829 5826 5824 5821 5819 5816 5814 5812 5811 5810 5808 5807 5805 5804 5803 5802 5801 5799 5797 5796 5795 5792 5790 5788 5785 5783 5782 5781 5780 5779 5777 5775 5773 5772 5772 5771 5770 5769 5768 5769
5835 5833 5830 5827 5824 5822 5820 5818 5816 5814 5812 5811 5809 5808 5807 5806 5804 5802 5799 5797 5795 5793 5792 5791 5788 5786 5783 5781 5779 5777 5776 5776 5775 5774 5772 5771 5770 5768 5767 5766 5765 5766 5766
5832 5830 5828 5826 5823 5820 5818 5816 5814 5813 5811 5809 5807 5806 5804 5803 5801 5799 5796 5794 5792 5790 5789 5787 5785 5783 5781 5779 5777 5774 5772 5771 5770 5768 5768 5767 5766 5764 5764 5763 5763 5763 5764
5827 5826 5825 5823 5821 5819 5817 5815 5812 5810 5807 5805 5803 5801 5799 5798 5797 5794 5792 5789 5788 5786 5784 5783 5781 5779 5777 5774 5772 5770 5768 5767 5765 5765 5765 5764 5762 5761 5760 5761 5761 5761 5761